Time,TemperatureF,DewpointF,PressureIn,WindDirection,WindDirectionDegrees,WindSpeedMPH,WindSpeedGustMPH,Humidity,HourlyPrecipIn,Conditions,Clouds,dailyrainin,SoftwareType,DateUTC
2013-06-22 00:01:00,71.2,61.7,29.90,North,-999,-999.0,-999.0,72,-99.99,,,-99.99,meteohub,2013-06-22 04:01:00,
2013-06-22 00:02:00,71.2,61.7,29.90,North,-999,-999.0,-999.0,72,-99.99,,,-99.99,meteohub,2013-06-22 04:02:00,
2013-06-22 00:03:00,71.2,61.7,29.90,North,-999,-999.0,-999.0,72,-99.99,,,-99.99,meteohub,2013-06-22 04:03:00,
2013-06-22 00:04:00,71.2,61.7,29.90,North,-999,-999.0,-999.0,72,-99.99,,,-99.99,meteohub,2013-06-22 04:04:00,
2013-06-22 00:09:00,71.1,61.5,29.90,North,-999,-999.0,-999.0,72,-99.99,,,-99.99,meteohub,2013-06-22 04:09:00,
2013-06-22 00:14:00,71.1,61.9,29.90,North,-999,-999.0,-999.0,73,-99.99,,,-99.99,meteohub,2013-06-22 04:14:00,
2013-06-22 00:19:00,70.9,62.2,29.90,North,-999,-999.0,-999.0,74,-99.99,,,-99.99,meteohub,2013-06-22 04:19:00,
2013-06-22 00:25:00,70.9,62.2,29.90,North,-999,-999.0,-999.0,74,-99.99,,,-99.99,meteohub,2013-06-22 04:25:00,
2013-06-22 00:30:00,70.9,62.6,29.90,North,-999,-999.0,-999.0,75,-99.99,,,-99.99,meteohub,2013-06-22 04:30:00,
2013-06-22 00:35:00,70.9,62.6,29.90,North,-999,-999.0,-999.0,75,-99.99,,,-99.99,meteohub,2013-06-22 04:35:00,
2013-06-22 00:40:00,70.9,63.0,29.90,North,-999,-999.0,-999.0,76,-99.99,,,-99.99,meteohub,2013-06-22 04:40:00,
2013-06-22 00:45:00,71.1,63.5,29.90,North,-999,-999.0,-999.0,77,-99.99,,,-99.99,meteohub,2013-06-22 04:45:00,
2013-06-22 00:50:00,71.2,63.7,29.90,North,-999,-999.0,-999.0,77,-99.99,,,-99.99,meteohub,2013-06-22 04:50:00,
2013-06-22 00:55:00,71.4,64.2,29.90,North,-999,-999.0,-999.0,78,-99.99,,,-99.99,meteohub,2013-06-22 04:55:00,
2013-06-22 01:00:00,71.6,64.4,29.90,North,-999,-999.0,-999.0,78,-99.99,,,-99.99,meteohub,2013-06-22 05:00:00,
2013-06-22 01:05:00,71.6,64.4,29.90,North,-999,-999.0,-999.0,78,-99.99,,,-99.99,meteohub,2013-06-22 05:05:00,
2013-06-22 01:11:00,71.6,64.4,29.90,North,-999,-999.0,-999.0,78,-99.99,,,-99.99,meteohub,2013-06-22 05:11:00,
2013-06-22 01:16:00,71.6,64.4,29.90,North,-999,-999.0,-999.0,78,-99.99,,,-99.99,meteohub,2013-06-22 05:16:00,
2013-06-22 01:21:00,71.6,64.4,29.90,North,-999,-999.0,-999.0,78,-99.99,,,-99.99,meteohub,2013-06-22 05:21:00,
2013-06-22 01:26:00,71.6,64.4,29.90,North,-999,-999.0,-999.0,78,-99.99,,,-99.99,meteohub,2013-06-22 05:26:00,
2013-06-22 01:31:00,71.6,64.4,29.90,North,-999,-999.0,-999.0,78,-99.99,,,-99.99,meteohub,2013-06-22 05:31:00,
2013-06-22 01:36:00,71.6,64.8,29.90,North,-999,-999.0,-999.0,79,-99.99,,,-99.99,meteohub,2013-06-22 05:36:00,
2013-06-22 01:41:00,71.6,64.8,29.90,North,-999,-999.0,-999.0,79,-99.99,,,-99.99,meteohub,2013-06-22 05:41:00,
2013-06-22 01:46:00,71.6,64.8,29.90,North,-999,-999.0,-999.0,79,-99.99,,,-99.99,meteohub,2013-06-22 05:46:00,
2013-06-22 01:51:00,71.8,64.9,29.90,North,-999,-999.0,-999.0,79,-99.99,,,-99.99,meteohub,2013-06-22 05:51:00,
2013-06-22 01:56:00,71.8,64.9,29.90,North,-999,-999.0,-999.0,79,-99.99,,,-99.99,meteohub,2013-06-22 05:56:00,
2013-06-22 02:02:00,71.8,64.9,29.90,North,-999,-999.0,-999.0,79,-99.99,,,-99.99,meteohub,2013-06-22 06:02:00,
2013-06-22 02:07:00,71.8,64.9,29.90,North,-999,-999.0,-999.0,79,-99.99,,,-99.99,meteohub,2013-06-22 06:07:00,
2013-06-22 02:12:00,71.6,64.8,29.90,North,-999,-999.0,-999.0,79,-99.99,,,-99.99,meteohub,2013-06-22 06:12:00,
2013-06-22 02:17:00,71.6,64.8,29.90,North,-999,-999.0,-999.0,79,-99.99,,,-99.99,meteohub,2013-06-22 06:17:00,
2013-06-22 02:22:00,71.6,64.8,29.90,North,-999,-999.0,-999.0,79,-99.99,,,-99.99,meteohub,2013-06-22 06:22:00,
2013-06-22 02:27:00,71.6,64.8,29.90,North,-999,-999.0,-999.0,79,-99.99,,,-99.99,meteohub,2013-06-22 06:27:00,
2013-06-22 02:32:00,71.6,64.8,29.90,North,-999,-999.0,-999.0,79,-99.99,,,-99.99,meteohub,2013-06-22 06:32:00,
2013-06-22 02:37:00,71.6,64.8,29.90,North,-999,-999.0,-999.0,79,-99.99,,,-99.99,meteohub,2013-06-22 06:37:00,
2013-06-22 02:42:00,71.4,64.9,29.90,North,-999,-999.0,-999.0,80,-99.99,,,-99.99,meteohub,2013-06-22 06:42:00,
2013-06-22 02:47:00,71.4,64.9,29.90,North,-999,-999.0,-999.0,80,-99.99,,,-99.99,meteohub,2013-06-22 06:47:00,
2013-06-22 02:52:00,71.4,64.9,29.87,North,-999,-999.0,-999.0,80,-99.99,,,-99.99,meteohub,2013-06-22 06:52:00,
2013-06-22 02:57:00,71.4,64.9,29.87,North,-999,-999.0,-999.0,80,-99.99,,,-99.99,meteohub,2013-06-22 06:57:00,
2013-06-22 03:02:00,71.4,64.9,29.87,North,-999,-999.0,-999.0,80,-99.99,,,-99.99,meteohub,2013-06-22 07:02:00,
2013-06-22 03:07:00,71.4,64.9,29.90,North,-999,-999.0,-999.0,80,-99.99,,,-99.99,meteohub,2013-06-22 07:07:00,
2013-06-22 03:12:00,71.4,64.9,29.90,North,-999,-999.0,-999.0,80,-99.99,,,-99.99,meteohub,2013-06-22 07:12:00,
2013-06-22 03:17:00,71.2,64.8,29.90,North,-999,-999.0,-999.0,80,-99.99,,,-99.99,meteohub,2013-06-22 07:17:00,
2013-06-22 03:22:00,71.2,65.1,29.87,North,-999,-999.0,-999.0,81,-99.99,,,-99.99,meteohub,2013-06-22 07:22:00,
2013-06-22 03:27:00,71.2,65.1,29.87,North,-999,-999.0,-999.0,81,-99.99,,,-99.99,meteohub,2013-06-22 07:27:00,
2013-06-22 03:32:00,71.2,65.1,29.87,North,-999,-999.0,-999.0,81,-99.99,,,-99.99,meteohub,2013-06-22 07:32:00,
2013-06-22 03:37:00,71.2,65.1,29.87,North,-999,-999.0,-999.0,81,-99.99,,,-99.99,meteohub,2013-06-22 07:37:00,
2013-06-22 03:42:00,71.4,65.3,29.87,North,-999,-999.0,-999.0,81,-99.99,,,-99.99,meteohub,2013-06-22 07:42:00,
2013-06-22 03:47:00,71.4,65.3,29.87,North,-999,-999.0,-999.0,81,-99.99,,,-99.99,meteohub,2013-06-22 07:47:00,
2013-06-22 03:52:00,71.4,65.3,29.90,North,-999,-999.0,-999.0,81,-99.99,,,-99.99,meteohub,2013-06-22 07:52:00,
2013-06-22 03:57:00,71.4,65.3,29.90,North,-999,-999.0,-999.0,81,-99.99,,,-99.99,meteohub,2013-06-22 07:57:00,
2013-06-22 04:02:00,71.4,65.3,29.90,North,-999,-999.0,-999.0,81,-99.99,,,-99.99,meteohub,2013-06-22 08:02:00,
2013-06-22 04:07:00,71.4,65.3,29.87,North,-999,-999.0,-999.0,81,-99.99,,,-99.99,meteohub,2013-06-22 08:07:00,
2013-06-22 04:12:00,71.4,65.3,29.87,North,-999,-999.0,-999.0,81,-99.99,,,-99.99,meteohub,2013-06-22 08:12:00,
2013-06-22 04:17:00,71.6,65.5,29.87,North,-999,-999.0,-999.0,81,-99.99,,,-99.99,meteohub,2013-06-22 08:17:00,
2013-06-22 04:22:00,71.6,65.5,29.87,North,-999,-999.0,-999.0,81,-99.99,,,-99.99,meteohub,2013-06-22 08:22:00,
2013-06-22 04:27:00,71.6,65.5,29.87,North,-999,-999.0,-999.0,81,-99.99,,,-99.99,meteohub,2013-06-22 08:27:00,
2013-06-22 04:32:00,71.6,65.5,29.87,North,-999,-999.0,-999.0,81,-99.99,,,-99.99,meteohub,2013-06-22 08:32:00,
2013-06-22 04:37:00,71.4,65.3,29.87,North,-999,-999.0,-999.0,81,-99.99,,,-99.99,meteohub,2013-06-22 08:37:00,
2013-06-22 04:42:00,71.4,65.3,29.87,North,-999,-999.0,-999.0,81,-99.99,,,-99.99,meteohub,2013-06-22 08:42:00,
2013-06-22 04:47:00,71.4,65.3,29.87,North,-999,-999.0,-999.0,81,-99.99,,,-99.99,meteohub,2013-06-22 08:47:00,
2013-06-22 04:52:00,71.4,65.3,29.87,North,-999,-999.0,-999.0,81,-99.99,,,-99.99,meteohub,2013-06-22 08:52:00,
2013-06-22 04:57:00,71.4,65.3,29.87,North,-999,-999.0,-999.0,81,-99.99,,,-99.99,meteohub,2013-06-22 08:57:00,
2013-06-22 05:02:00,71.4,65.3,29.87,North,-999,-999.0,-999.0,81,-99.99,,,-99.99,meteohub,2013-06-22 09:02:00,
2013-06-22 05:07:00,71.4,65.3,29.90,North,-999,-999.0,-999.0,81,-99.99,,,-99.99,meteohub,2013-06-22 09:07:00,
2013-06-22 05:12:00,71.4,65.3,29.90,North,-999,-999.0,-999.0,81,-99.99,,,-99.99,meteohub,2013-06-22 09:12:00,
2013-06-22 05:17:00,71.4,65.7,29.90,North,-999,-999.0,-999.0,82,-99.99,,,-99.99,meteohub,2013-06-22 09:17:00,
2013-06-22 05:22:00,71.2,65.5,29.87,North,-999,-999.0,-999.0,82,-99.99,,,-99.99,meteohub,2013-06-22 09:22:00,
2013-06-22 05:27:00,71.2,65.5,29.87,North,-999,-999.0,-999.0,82,-99.99,,,-99.99,meteohub,2013-06-22 09:27:00,
2013-06-22 05:32:00,71.2,65.5,29.87,North,-999,-999.0,-999.0,82,-99.99,,,-99.99,meteohub,2013-06-22 09:32:00,
2013-06-22 05:37:00,71.2,65.5,29.90,North,-999,-999.0,-999.0,82,-99.99,,,-99.99,meteohub,2013-06-22 09:37:00,
2013-06-22 05:42:00,71.2,65.5,29.90,North,-999,-999.0,-999.0,82,-99.99,,,-99.99,meteohub,2013-06-22 09:42:00,
2013-06-22 05:47:00,71.2,65.5,29.90,North,-999,-999.0,-999.0,82,-99.99,,,-99.99,meteohub,2013-06-22 09:47:00,
2013-06-22 05:52:00,71.2,65.5,29.90,North,-999,-999.0,-999.0,82,-99.99,,,-99.99,meteohub,2013-06-22 09:52:00,
2013-06-22 05:57:00,71.1,65.3,29.90,North,-999,-999.0,-999.0,82,-99.99,,,-99.99,meteohub,2013-06-22 09:57:00,
2013-06-22 06:02:00,71.1,65.3,29.90,North,-999,-999.0,-999.0,82,-99.99,,,-99.99,meteohub,2013-06-22 10:02:00,
2013-06-22 06:07:00,70.9,65.1,29.90,North,-999,-999.0,-999.0,82,-99.99,,,-99.99,meteohub,2013-06-22 10:07:00,
2013-06-22 06:12:00,70.9,65.5,29.90,North,-999,-999.0,-999.0,83,-99.99,,,-99.99,meteohub,2013-06-22 10:12:00,
2013-06-22 06:17:00,70.9,65.5,29.90,North,-999,-999.0,-999.0,83,-99.99,,,-99.99,meteohub,2013-06-22 10:17:00,
2013-06-22 06:22:00,70.9,65.5,29.90,North,-999,-999.0,-999.0,83,-99.99,,,-99.99,meteohub,2013-06-22 10:22:00,
2013-06-22 06:27:00,70.7,65.3,29.90,North,-999,-999.0,-999.0,83,-99.99,,,-99.99,meteohub,2013-06-22 10:27:00,
2013-06-22 06:32:00,70.7,65.3,29.90,North,-999,-999.0,-999.0,83,-99.99,,,-99.99,meteohub,2013-06-22 10:32:00,
2013-06-22 06:37:00,70.7,65.3,29.90,North,-999,-999.0,-999.0,83,-99.99,,,-99.99,meteohub,2013-06-22 10:37:00,
2013-06-22 06:42:00,70.5,65.1,29.90,North,-999,-999.0,-999.0,83,-99.99,,,-99.99,meteohub,2013-06-22 10:42:00,
2013-06-22 06:47:00,70.5,65.1,29.90,North,-999,-999.0,-999.0,83,-99.99,,,-99.99,meteohub,2013-06-22 10:47:00,
2013-06-22 06:52:00,70.3,64.9,29.90,North,-999,-999.0,-999.0,83,-99.99,,,-99.99,meteohub,2013-06-22 10:52:00,
2013-06-22 06:57:00,70.3,65.3,29.90,North,-999,-999.0,-999.0,84,-99.99,,,-99.99,meteohub,2013-06-22 10:57:00,
2013-06-22 07:02:00,70.3,65.3,29.90,North,-999,-999.0,-999.0,84,-99.99,,,-99.99,meteohub,2013-06-22 11:02:00,
2013-06-22 07:07:00,70.3,65.3,29.90,North,-999,-999.0,-999.0,84,-99.99,,,-99.99,meteohub,2013-06-22 11:07:00,
2013-06-22 07:12:00,70.3,65.3,29.90,North,-999,-999.0,-999.0,84,-99.99,,,-99.99,meteohub,2013-06-22 11:12:00,
2013-06-22 07:17:00,70.3,65.3,29.90,North,-999,-999.0,-999.0,84,-99.99,,,-99.99,meteohub,2013-06-22 11:17:00,
2013-06-22 07:22:00,70.2,65.1,29.90,North,-999,-999.0,-999.0,84,-99.99,,,-99.99,meteohub,2013-06-22 11:22:00,
2013-06-22 07:27:00,70.2,65.1,29.90,North,-999,-999.0,-999.0,84,-99.99,,,-99.99,meteohub,2013-06-22 11:27:00,
2013-06-22 07:32:00,70.2,65.5,29.90,North,-999,-999.0,-999.0,85,-99.99,,,-99.99,meteohub,2013-06-22 11:32:00,
2013-06-22 07:37:00,70.2,65.5,29.90,North,-999,-999.0,-999.0,85,-99.99,,,-99.99,meteohub,2013-06-22 11:37:00,
2013-06-22 07:42:00,70.3,65.7,29.90,North,-999,-999.0,-999.0,85,-99.99,,,-99.99,meteohub,2013-06-22 11:42:00,
2013-06-22 07:47:00,70.3,65.7,29.90,North,-999,-999.0,-999.0,85,-99.99,,,-99.99,meteohub,2013-06-22 11:47:00,
2013-06-22 07:52:00,70.3,65.7,29.90,North,-999,-999.0,-999.0,85,-99.99,,,-99.99,meteohub,2013-06-22 11:52:00,
2013-06-22 07:57:00,70.3,65.7,29.90,North,-999,-999.0,-999.0,85,-99.99,,,-99.99,meteohub,2013-06-22 11:57:00,
2013-06-22 08:02:00,70.5,65.8,29.90,North,-999,-999.0,-999.0,85,-99.99,,,-99.99,meteohub,2013-06-22 12:02:00,
2013-06-22 08:07:00,70.5,65.8,29.90,North,-999,-999.0,-999.0,85,-99.99,,,-99.99,meteohub,2013-06-22 12:07:00,
2013-06-22 08:12:00,70.5,65.8,29.90,North,-999,-999.0,-999.0,85,-99.99,,,-99.99,meteohub,2013-06-22 12:12:00,
2013-06-22 08:17:00,70.5,65.8,29.90,North,-999,-999.0,-999.0,85,-99.99,,,-99.99,meteohub,2013-06-22 12:17:00,
2013-06-22 08:22:00,70.5,65.8,29.93,North,-999,-999.0,-999.0,85,-99.99,,,-99.99,meteohub,2013-06-22 12:22:00,
2013-06-22 08:27:00,70.7,66.0,29.93,North,-999,-999.0,-999.0,85,-99.99,,,-99.99,meteohub,2013-06-22 12:27:00,
2013-06-22 08:32:00,70.7,66.4,29.93,North,-999,-999.0,-999.0,86,-99.99,,,-99.99,meteohub,2013-06-22 12:32:00,
2013-06-22 08:37:00,70.7,66.4,29.90,North,-999,-999.0,-999.0,86,-99.99,,,-99.99,meteohub,2013-06-22 12:37:00,
2013-06-22 08:42:00,70.9,66.6,29.90,North,-999,-999.0,-999.0,86,-99.99,,,-99.99,meteohub,2013-06-22 12:42:00,
2013-06-22 08:47:00,70.9,66.2,29.90,North,-999,-999.0,-999.0,85,-99.99,,,-99.99,meteohub,2013-06-22 12:47:00,
2013-06-22 08:52:00,71.1,66.7,29.93,North,-999,-999.0,-999.0,86,-99.99,,,-99.99,meteohub,2013-06-22 12:52:00,
2013-06-22 08:57:00,71.1,66.7,29.93,North,-999,-999.0,-999.0,86,-99.99,,,-99.99,meteohub,2013-06-22 12:57:00,
2013-06-22 09:02:00,71.2,66.6,29.93,North,-999,-999.0,-999.0,85,-99.99,,,-99.99,meteohub,2013-06-22 13:02:00,
2013-06-22 09:07:00,71.2,66.9,29.93,North,-999,-999.0,-999.0,86,-99.99,,,-99.99,meteohub,2013-06-22 13:07:00,
2013-06-22 09:12:00,71.2,66.6,29.93,North,-999,-999.0,-999.0,85,-99.99,,,-99.99,meteohub,2013-06-22 13:12:00,
2013-06-22 09:17:00,71.4,66.7,29.93,North,-999,-999.0,-999.0,85,-99.99,,,-99.99,meteohub,2013-06-22 13:17:00,
2013-06-22 09:22:00,71.4,66.7,29.93,North,-999,-999.0,-999.0,85,-99.99,,,-99.99,meteohub,2013-06-22 13:22:00,
2013-06-22 09:27:00,71.6,66.6,29.93,North,-999,-999.0,-999.0,84,-99.99,,,-99.99,meteohub,2013-06-22 13:27:00,
2013-06-22 09:32:00,71.6,66.9,29.93,North,-999,-999.0,-999.0,85,-99.99,,,-99.99,meteohub,2013-06-22 13:32:00,
2013-06-22 09:37:00,71.6,66.9,29.93,North,-999,-999.0,-999.0,85,-99.99,,,-99.99,meteohub,2013-06-22 13:37:00,
2013-06-22 09:42:00,71.8,67.1,29.93,North,-999,-999.0,-999.0,85,-99.99,,,-99.99,meteohub,2013-06-22 13:42:00,
2013-06-22 09:47:00,72.0,67.5,29.93,North,-999,-999.0,-999.0,86,-99.99,,,-99.99,meteohub,2013-06-22 13:47:00,
2013-06-22 09:52:00,72.3,67.8,29.90,North,-999,-999.0,-999.0,86,-99.99,,,-99.99,meteohub,2013-06-22 13:52:00,
2013-06-22 09:57:00,72.5,67.8,29.90,North,-999,-999.0,-999.0,85,-99.99,,,-99.99,meteohub,2013-06-22 13:57:00,
2013-06-22 10:02:00,72.5,67.5,29.90,North,-999,-999.0,-999.0,84,-99.99,,,-99.99,meteohub,2013-06-22 14:02:00,
2013-06-22 10:07:00,72.7,67.6,29.90,North,-999,-999.0,-999.0,84,-99.99,,,-99.99,meteohub,2013-06-22 14:07:00,
2013-06-22 10:12:00,72.9,67.8,29.90,North,-999,-999.0,-999.0,84,-99.99,,,-99.99,meteohub,2013-06-22 14:12:00,
2013-06-22 10:17:00,72.9,67.5,29.90,North,-999,-999.0,-999.0,83,-99.99,,,-99.99,meteohub,2013-06-22 14:17:00,
2013-06-22 10:22:00,73.0,67.3,29.90,North,-999,-999.0,-999.0,82,-99.99,,,-99.99,meteohub,2013-06-22 14:22:00,
2013-06-22 10:27:00,73.4,67.6,29.90,North,-999,-999.0,-999.0,82,-99.99,,,-99.99,meteohub,2013-06-22 14:27:00,
2013-06-22 10:32:00,73.4,67.3,29.90,North,-999,-999.0,-999.0,81,-99.99,,,-99.99,meteohub,2013-06-22 14:32:00,
2013-06-22 10:37:00,73.4,67.3,29.90,North,-999,-999.0,-999.0,81,-99.99,,,-99.99,meteohub,2013-06-22 14:37:00,
2013-06-22 10:42:00,73.6,67.1,29.90,North,-999,-999.0,-999.0,80,-99.99,,,-99.99,meteohub,2013-06-22 14:42:00,
2013-06-22 10:47:00,73.8,67.3,29.90,North,-999,-999.0,-999.0,80,-99.99,,,-99.99,meteohub,2013-06-22 14:47:00,
2013-06-22 10:52:00,73.8,67.3,29.90,North,-999,-999.0,-999.0,80,-99.99,,,-99.99,meteohub,2013-06-22 14:52:00,
2013-06-22 10:57:00,73.9,67.1,29.90,North,-999,-999.0,-999.0,79,-99.99,,,-99.99,meteohub,2013-06-22 14:57:00,
2013-06-22 11:02:00,74.1,67.1,29.90,North,-999,-999.0,-999.0,79,-99.99,,,-99.99,meteohub,2013-06-22 15:02:00,
2013-06-22 11:07:00,74.5,67.5,29.90,North,-999,-999.0,-999.0,79,-99.99,,,-99.99,meteohub,2013-06-22 15:07:00,
2013-06-22 11:12:00,75.0,67.6,29.90,North,-999,-999.0,-999.0,78,-99.99,,,-99.99,meteohub,2013-06-22 15:12:00,
2013-06-22 11:17:00,75.4,68.0,29.90,North,-999,-999.0,-999.0,78,-99.99,,,-99.99,meteohub,2013-06-22 15:17:00,
2013-06-22 11:22:00,75.2,67.5,29.90,North,-999,-999.0,-999.0,77,-99.99,,,-99.99,meteohub,2013-06-22 15:22:00,
2013-06-22 11:27:00,75.2,67.1,29.90,North,-999,-999.0,-999.0,76,-99.99,,,-99.99,meteohub,2013-06-22 15:27:00,
2013-06-22 11:32:00,75.2,67.1,29.90,North,-999,-999.0,-999.0,76,-99.99,,,-99.99,meteohub,2013-06-22 15:32:00,
2013-06-22 11:37:00,75.2,67.5,29.90,North,-999,-999.0,-999.0,77,-99.99,,,-99.99,meteohub,2013-06-22 15:37:00,
2013-06-22 11:42:00,75.6,67.8,29.90,North,-999,-999.0,-999.0,77,-99.99,,,-99.99,meteohub,2013-06-22 15:42:00,
2013-06-22 11:47:00,75.9,68.2,29.90,North,-999,-999.0,-999.0,77,-99.99,,,-99.99,meteohub,2013-06-22 15:47:00,
2013-06-22 11:52:00,76.8,68.7,29.93,North,-999,-999.0,-999.0,76,-99.99,,,-99.99,meteohub,2013-06-22 15:52:00,
2013-06-22 11:58:00,77.4,68.4,29.93,North,-999,-999.0,-999.0,74,-99.99,,,-99.99,meteohub,2013-06-22 15:58:00,
2013-06-22 12:03:00,77.0,68.0,29.93,North,-999,-999.0,-999.0,74,-99.99,,,-99.99,meteohub,2013-06-22 16:03:00,
2013-06-22 12:08:00,76.8,67.5,29.93,North,-999,-999.0,-999.0,73,-99.99,,,-99.99,meteohub,2013-06-22 16:08:00,
2013-06-22 12:13:00,76.8,67.5,29.93,North,-999,-999.0,-999.0,73,-99.99,,,-99.99,meteohub,2013-06-22 16:13:00,
2013-06-22 12:18:00,76.6,67.3,29.93,North,-999,-999.0,-999.0,73,-99.99,,,-99.99,meteohub,2013-06-22 16:18:00,
2013-06-22 12:23:00,77.0,67.6,29.90,North,-999,-999.0,-999.0,73,-99.99,,,-99.99,meteohub,2013-06-22 16:23:00,
2013-06-22 12:28:00,78.3,68.5,29.90,North,-999,-999.0,-999.0,72,-99.99,,,-99.99,meteohub,2013-06-22 16:28:00,
2013-06-22 12:33:00,78.1,68.4,29.90,North,-999,-999.0,-999.0,72,-99.99,,,-99.99,meteohub,2013-06-22 16:33:00,
2013-06-22 12:38:00,77.9,68.2,29.90,North,-999,-999.0,-999.0,72,-99.99,,,-99.99,meteohub,2013-06-22 16:38:00,
2013-06-22 12:44:00,78.6,68.9,29.90,North,-999,-999.0,-999.0,72,-99.99,,,-99.99,meteohub,2013-06-22 16:44:00,
2013-06-22 12:49:00,78.6,68.4,29.90,North,-999,-999.0,-999.0,71,-99.99,,,-99.99,meteohub,2013-06-22 16:49:00,
2013-06-22 12:54:00,78.1,67.5,29.90,North,-999,-999.0,-999.0,70,-99.99,,,-99.99,meteohub,2013-06-22 16:54:00,
2013-06-22 12:59:00,77.7,67.1,29.90,North,-999,-999.0,-999.0,70,-99.99,,,-99.99,meteohub,2013-06-22 16:59:00,
2013-06-22 13:04:00,77.4,66.7,29.90,North,-999,-999.0,-999.0,70,-99.99,,,-99.99,meteohub,2013-06-22 17:04:00,
2013-06-22 13:09:00,77.5,67.5,29.90,North,-999,-999.0,-999.0,71,-99.99,,,-99.99,meteohub,2013-06-22 17:09:00,
2013-06-22 13:14:00,78.3,68.0,29.90,North,-999,-999.0,-999.0,71,-99.99,,,-99.99,meteohub,2013-06-22 17:14:00,
2013-06-22 13:19:00,78.1,67.8,29.90,North,-999,-999.0,-999.0,71,-99.99,,,-99.99,meteohub,2013-06-22 17:19:00,
2013-06-22 13:24:00,79.0,68.4,29.90,North,-999,-999.0,-999.0,70,-99.99,,,-99.99,meteohub,2013-06-22 17:24:00,
2013-06-22 13:29:00,80.6,69.4,29.90,North,-999,-999.0,-999.0,69,-99.99,,,-99.99,meteohub,2013-06-22 17:29:00,
2013-06-22 13:35:00,81.5,69.4,29.90,North,-999,-999.0,-999.0,67,-99.99,,,-99.99,meteohub,2013-06-22 17:35:00,
2013-06-22 13:40:00,80.4,68.5,29.90,North,-999,-999.0,-999.0,67,-99.99,,,-99.99,meteohub,2013-06-22 17:40:00,
2013-06-22 13:45:00,80.8,68.7,29.90,North,-999,-999.0,-999.0,67,-99.99,,,-99.99,meteohub,2013-06-22 17:45:00,
2013-06-22 13:50:00,81.0,68.5,29.90,North,-999,-999.0,-999.0,66,-99.99,,,-99.99,meteohub,2013-06-22 17:50:00,
2013-06-22 13:55:00,81.3,68.9,29.90,North,-999,-999.0,-999.0,66,-99.99,,,-99.99,meteohub,2013-06-22 17:55:00,
2013-06-22 14:00:00,81.1,68.7,29.90,North,-999,-999.0,-999.0,66,-99.99,,,-99.99,meteohub,2013-06-22 18:00:00,
2013-06-22 14:05:00,81.3,68.4,29.90,North,-999,-999.0,-999.0,65,-99.99,,,-99.99,meteohub,2013-06-22 18:05:00,
2013-06-22 14:10:00,81.5,69.1,29.90,North,-999,-999.0,-999.0,66,-99.99,,,-99.99,meteohub,2013-06-22 18:10:00,
2013-06-22 14:15:00,81.5,68.5,29.90,North,-999,-999.0,-999.0,65,-99.99,,,-99.99,meteohub,2013-06-22 18:15:00,
2013-06-22 14:20:00,81.7,68.7,29.90,North,-999,-999.0,-999.0,65,-99.99,,,-99.99,meteohub,2013-06-22 18:20:00,
2013-06-22 14:26:00,80.6,67.8,29.90,North,-999,-999.0,-999.0,65,-99.99,,,-99.99,meteohub,2013-06-22 18:26:00,
2013-06-22 14:31:00,79.9,67.5,29.90,North,-999,-999.0,-999.0,66,-99.99,,,-99.99,meteohub,2013-06-22 18:31:00,
2013-06-22 14:36:00,79.2,66.7,29.90,North,-999,-999.0,-999.0,66,-99.99,,,-99.99,meteohub,2013-06-22 18:36:00,
2013-06-22 14:41:00,77.9,66.0,29.90,North,-999,-999.0,-999.0,67,-99.99,,,-99.99,meteohub,2013-06-22 18:41:00,
2013-06-22 14:46:00,77.0,65.7,29.90,North,-999,-999.0,-999.0,68,-99.99,,,-99.99,meteohub,2013-06-22 18:46:00,
2013-06-22 14:51:00,76.5,65.5,29.90,North,-999,-999.0,-999.0,69,-99.99,,,-99.99,meteohub,2013-06-22 18:51:00,
2013-06-22 14:56:00,76.5,66.0,29.90,North,-999,-999.0,-999.0,70,-99.99,,,-99.99,meteohub,2013-06-22 18:56:00,
2013-06-22 15:01:00,77.0,66.9,29.90,North,-999,-999.0,-999.0,71,-99.99,,,-99.99,meteohub,2013-06-22 19:01:00,
2013-06-22 15:06:00,78.3,68.5,29.90,North,-999,-999.0,-999.0,72,-99.99,,,-99.99,meteohub,2013-06-22 19:06:00,
2013-06-22 15:12:00,78.8,68.5,29.90,North,-999,-999.0,-999.0,71,-99.99,,,-99.99,meteohub,2013-06-22 19:12:00,
2013-06-22 15:17:00,78.1,67.1,29.90,North,-999,-999.0,-999.0,69,-99.99,,,-99.99,meteohub,2013-06-22 19:17:00,
2013-06-22 15:22:00,78.1,67.5,29.90,North,-999,-999.0,-999.0,70,-99.99,,,-99.99,meteohub,2013-06-22 19:22:00,
2013-06-22 15:27:00,78.4,67.8,29.90,North,-999,-999.0,-999.0,70,-99.99,,,-99.99,meteohub,2013-06-22 19:27:00,
2013-06-22 15:32:00,78.8,66.9,29.90,North,-999,-999.0,-999.0,67,-99.99,,,-99.99,meteohub,2013-06-22 19:32:00,
2013-06-22 15:37:00,78.4,66.2,29.90,North,-999,-999.0,-999.0,66,-99.99,,,-99.99,meteohub,2013-06-22 19:37:00,
2013-06-22 15:42:00,78.6,66.7,29.90,North,-999,-999.0,-999.0,67,-99.99,,,-99.99,meteohub,2013-06-22 19:42:00,
2013-06-22 15:47:00,78.8,66.6,29.90,North,-999,-999.0,-999.0,66,-99.99,,,-99.99,meteohub,2013-06-22 19:47:00,
2013-06-22 15:52:00,79.5,67.1,29.87,North,-999,-999.0,-999.0,66,-99.99,,,-99.99,meteohub,2013-06-22 19:52:00,
2013-06-22 15:57:00,80.1,67.6,29.87,North,-999,-999.0,-999.0,66,-99.99,,,-99.99,meteohub,2013-06-22 19:57:00,
2013-06-22 16:02:00,80.1,67.6,29.87,North,-999,-999.0,-999.0,66,-99.99,,,-99.99,meteohub,2013-06-22 20:02:00,
2013-06-22 16:07:00,80.1,67.6,29.87,North,-999,-999.0,-999.0,66,-99.99,,,-99.99,meteohub,2013-06-22 20:07:00,
2013-06-22 16:12:00,79.2,66.7,29.87,North,-999,-999.0,-999.0,66,-99.99,,,-99.99,meteohub,2013-06-22 20:12:00,
2013-06-22 16:17:00,79.0,66.6,29.87,North,-999,-999.0,-999.0,66,-99.99,,,-99.99,meteohub,2013-06-22 20:17:00,
2013-06-22 16:22:00,78.8,66.6,29.87,North,-999,-999.0,-999.0,66,-99.99,,,-99.99,meteohub,2013-06-22 20:22:00,
2013-06-22 16:27:00,78.8,66.6,29.87,North,-999,-999.0,-999.0,66,-99.99,,,-99.99,meteohub,2013-06-22 20:27:00,
2013-06-22 16:32:00,78.8,66.6,29.87,North,-999,-999.0,-999.0,66,-99.99,,,-99.99,meteohub,2013-06-22 20:32:00,
2013-06-22 16:37:00,78.6,66.7,29.87,North,-999,-999.0,-999.0,67,-99.99,,,-99.99,meteohub,2013-06-22 20:37:00,
2013-06-22 16:42:00,78.4,66.2,29.87,North,-999,-999.0,-999.0,66,-99.99,,,-99.99,meteohub,2013-06-22 20:42:00,
2013-06-22 16:47:00,78.3,65.5,29.87,North,-999,-999.0,-999.0,65,-99.99,,,-99.99,meteohub,2013-06-22 20:47:00,
2013-06-22 16:52:00,78.6,66.4,29.87,North,-999,-999.0,-999.0,66,-99.99,,,-99.99,meteohub,2013-06-22 20:52:00,
2013-06-22 16:57:00,78.4,66.2,29.87,North,-999,-999.0,-999.0,66,-99.99,,,-99.99,meteohub,2013-06-22 20:57:00,
2013-06-22 17:02:00,78.1,65.8,29.87,North,-999,-999.0,-999.0,66,-99.99,,,-99.99,meteohub,2013-06-22 21:02:00,
2013-06-22 17:07:00,77.9,66.0,29.87,North,-999,-999.0,-999.0,67,-99.99,,,-99.99,meteohub,2013-06-22 21:07:00,
2013-06-22 17:12:00,78.3,66.4,29.87,North,-999,-999.0,-999.0,67,-99.99,,,-99.99,meteohub,2013-06-22 21:12:00,
2013-06-22 17:17:00,78.4,66.6,29.87,North,-999,-999.0,-999.0,67,-99.99,,,-99.99,meteohub,2013-06-22 21:17:00,
2013-06-22 17:22:00,78.6,66.7,29.87,North,-999,-999.0,-999.0,67,-99.99,,,-99.99,meteohub,2013-06-22 21:22:00,
2013-06-22 17:27:00,78.4,66.6,29.87,North,-999,-999.0,-999.0,67,-99.99,,,-99.99,meteohub,2013-06-22 21:27:00,
2013-06-22 17:32:00,78.1,66.7,29.87,North,-999,-999.0,-999.0,68,-99.99,,,-99.99,meteohub,2013-06-22 21:32:00,
2013-06-22 17:37:00,77.9,66.6,29.87,North,-999,-999.0,-999.0,68,-99.99,,,-99.99,meteohub,2013-06-22 21:37:00,
2013-06-22 17:42:00,77.5,66.2,29.87,North,-999,-999.0,-999.0,68,-99.99,,,-99.99,meteohub,2013-06-22 21:42:00,
2013-06-22 17:47:00,77.4,66.0,29.87,North,-999,-999.0,-999.0,68,-99.99,,,-99.99,meteohub,2013-06-22 21:47:00,
2013-06-22 17:52:00,77.2,65.8,29.87,North,-999,-999.0,-999.0,68,-99.99,,,-99.99,meteohub,2013-06-22 21:52:00,
2013-06-22 17:57:00,77.2,66.2,29.87,North,-999,-999.0,-999.0,69,-99.99,,,-99.99,meteohub,2013-06-22 21:57:00,
2013-06-22 18:02:00,77.2,65.8,29.87,North,-999,-999.0,-999.0,68,-99.99,,,-99.99,meteohub,2013-06-22 22:02:00,
2013-06-22 18:07:00,77.2,66.2,29.87,North,-999,-999.0,-999.0,69,-99.99,,,-99.99,meteohub,2013-06-22 22:07:00,
2013-06-22 18:12:00,77.4,66.4,29.87,North,-999,-999.0,-999.0,69,-99.99,,,-99.99,meteohub,2013-06-22 22:12:00,
2013-06-22 18:17:00,77.2,66.2,29.87,North,-999,-999.0,-999.0,69,-99.99,,,-99.99,meteohub,2013-06-22 22:17:00,
2013-06-22 18:22:00,77.0,66.0,29.87,North,-999,-999.0,-999.0,69,-99.99,,,-99.99,meteohub,2013-06-22 22:22:00,
2013-06-22 18:27:00,77.0,66.0,29.87,North,-999,-999.0,-999.0,69,-99.99,,,-99.99,meteohub,2013-06-22 22:27:00,
2013-06-22 18:32:00,76.6,66.2,29.87,North,-999,-999.0,-999.0,70,-99.99,,,-99.99,meteohub,2013-06-22 22:32:00,
2013-06-22 18:37:00,76.5,66.0,29.87,North,-999,-999.0,-999.0,70,-99.99,,,-99.99,meteohub,2013-06-22 22:37:00,
2013-06-22 18:42:00,76.5,66.0,29.87,North,-999,-999.0,-999.0,70,-99.99,,,-99.99,meteohub,2013-06-22 22:42:00,
2013-06-22 18:47:00,76.3,65.8,29.87,North,-999,-999.0,-999.0,70,-99.99,,,-99.99,meteohub,2013-06-22 22:47:00,
2013-06-22 18:52:00,76.1,65.7,29.84,North,-999,-999.0,-999.0,70,-99.99,,,-99.99,meteohub,2013-06-22 22:52:00,
2013-06-22 18:57:00,76.1,65.7,29.84,North,-999,-999.0,-999.0,70,-99.99,,,-99.99,meteohub,2013-06-22 22:57:00,
2013-06-22 19:02:00,75.9,65.8,29.84,North,-999,-999.0,-999.0,71,-99.99,,,-99.99,meteohub,2013-06-22 23:02:00,
2013-06-22 19:07:00,75.7,66.0,29.84,North,-999,-999.0,-999.0,72,-99.99,,,-99.99,meteohub,2013-06-22 23:07:00,
2013-06-22 19:12:00,75.7,66.0,29.84,North,-999,-999.0,-999.0,72,-99.99,,,-99.99,meteohub,2013-06-22 23:12:00,
2013-06-22 19:17:00,75.6,65.8,29.84,North,-999,-999.0,-999.0,72,-99.99,,,-99.99,meteohub,2013-06-22 23:17:00,
2013-06-22 19:22:00,75.6,65.8,29.87,North,-999,-999.0,-999.0,72,-99.99,,,-99.99,meteohub,2013-06-22 23:22:00,
2013-06-22 19:27:00,75.4,66.2,29.87,North,-999,-999.0,-999.0,73,-99.99,,,-99.99,meteohub,2013-06-22 23:27:00,
2013-06-22 19:32:00,75.4,66.2,29.87,North,-999,-999.0,-999.0,73,-99.99,,,-99.99,meteohub,2013-06-22 23:32:00,
2013-06-22 19:37:00,75.2,66.0,29.87,North,-999,-999.0,-999.0,73,-99.99,,,-99.99,meteohub,2013-06-22 23:37:00,
2013-06-22 19:42:00,75.2,66.0,29.87,North,-999,-999.0,-999.0,73,-99.99,,,-99.99,meteohub,2013-06-22 23:42:00,
2013-06-22 19:47:00,75.2,66.0,29.87,North,-999,-999.0,-999.0,73,-99.99,,,-99.99,meteohub,2013-06-22 23:47:00,
2013-06-22 19:52:00,75.0,66.2,29.87,North,-999,-999.0,-999.0,74,-99.99,,,-99.99,meteohub,2013-06-22 23:52:00,
2013-06-22 19:57:00,75.0,66.2,29.87,North,-999,-999.0,-999.0,74,-99.99,,,-99.99,meteohub,2013-06-22 23:57:00,
2013-06-22 20:02:00,75.0,66.2,29.87,North,-999,-999.0,-999.0,74,-99.99,,,-99.99,meteohub,2013-06-23 00:02:00,
2013-06-22 20:07:00,74.8,66.0,29.87,North,-999,-999.0,-999.0,74,-99.99,,,-99.99,meteohub,2013-06-23 00:07:00,
2013-06-22 20:12:00,74.8,66.0,29.87,North,-999,-999.0,-999.0,74,-99.99,,,-99.99,meteohub,2013-06-23 00:12:00,
2013-06-22 20:17:00,74.7,66.2,29.87,North,-999,-999.0,-999.0,75,-99.99,,,-99.99,meteohub,2013-06-23 00:17:00,
2013-06-22 20:22:00,74.5,66.0,29.87,North,-999,-999.0,-999.0,75,-99.99,,,-99.99,meteohub,2013-06-23 00:22:00,
2013-06-22 20:27:00,74.3,65.8,29.87,North,-999,-999.0,-999.0,75,-99.99,,,-99.99,meteohub,2013-06-23 00:27:00,
2013-06-22 20:32:00,74.1,66.0,29.87,North,-999,-999.0,-999.0,76,-99.99,,,-99.99,meteohub,2013-06-23 00:32:00,
2013-06-22 20:37:00,73.9,65.8,29.87,North,-999,-999.0,-999.0,76,-99.99,,,-99.99,meteohub,2013-06-23 00:37:00,
2013-06-22 20:42:00,73.8,65.7,29.87,North,-999,-999.0,-999.0,76,-99.99,,,-99.99,meteohub,2013-06-23 00:42:00,
2013-06-22 20:47:00,73.6,65.5,29.87,North,-999,-999.0,-999.0,76,-99.99,,,-99.99,meteohub,2013-06-23 00:47:00,
2013-06-22 20:52:00,73.6,65.5,29.87,North,-999,-999.0,-999.0,76,-99.99,,,-99.99,meteohub,2013-06-23 00:52:00,
2013-06-22 20:57:00,73.4,65.3,29.87,North,-999,-999.0,-999.0,76,-99.99,,,-99.99,meteohub,2013-06-23 00:57:00,
2013-06-22 21:02:00,73.2,65.7,29.87,North,-999,-999.0,-999.0,77,-99.99,,,-99.99,meteohub,2013-06-23 01:02:00,
2013-06-22 21:07:00,73.2,65.7,29.87,North,-999,-999.0,-999.0,77,-99.99,,,-99.99,meteohub,2013-06-23 01:07:00,
2013-06-22 21:12:00,73.0,65.5,29.87,North,-999,-999.0,-999.0,77,-99.99,,,-99.99,meteohub,2013-06-23 01:12:00,
2013-06-22 21:17:00,73.0,65.5,29.87,North,-999,-999.0,-999.0,77,-99.99,,,-99.99,meteohub,2013-06-23 01:17:00,
2013-06-22 21:22:00,73.0,65.8,29.87,North,-999,-999.0,-999.0,78,-99.99,,,-99.99,meteohub,2013-06-23 01:22:00,
2013-06-22 21:27:00,73.0,65.8,29.87,North,-999,-999.0,-999.0,78,-99.99,,,-99.99,meteohub,2013-06-23 01:27:00,
2013-06-22 21:32:00,73.0,65.8,29.87,North,-999,-999.0,-999.0,78,-99.99,,,-99.99,meteohub,2013-06-23 01:32:00,
2013-06-22 21:37:00,73.0,65.8,29.87,North,-999,-999.0,-999.0,78,-99.99,,,-99.99,meteohub,2013-06-23 01:37:00,
2013-06-22 21:42:00,72.9,65.7,29.87,North,-999,-999.0,-999.0,78,-99.99,,,-99.99,meteohub,2013-06-23 01:42:00,
2013-06-22 21:47:00,72.9,65.7,29.87,North,-999,-999.0,-999.0,78,-99.99,,,-99.99,meteohub,2013-06-23 01:47:00,
2013-06-22 21:52:00,72.9,65.7,29.84,North,-999,-999.0,-999.0,78,-99.99,,,-99.99,meteohub,2013-06-23 01:52:00,
2013-06-22 21:57:00,72.9,65.7,29.84,North,-999,-999.0,-999.0,78,-99.99,,,-99.99,meteohub,2013-06-23 01:57:00,
2013-06-22 22:02:00,72.9,65.7,29.84,North,-999,-999.0,-999.0,78,-99.99,,,-99.99,meteohub,2013-06-23 02:02:00,
2013-06-22 22:07:00,72.9,65.7,29.84,North,-999,-999.0,-999.0,78,-99.99,,,-99.99,meteohub,2013-06-23 02:07:00,
2013-06-22 22:12:00,72.7,65.8,29.84,North,-999,-999.0,-999.0,79,-99.99,,,-99.99,meteohub,2013-06-23 02:12:00,
2013-06-22 22:17:00,72.7,65.8,29.84,North,-999,-999.0,-999.0,79,-99.99,,,-99.99,meteohub,2013-06-23 02:17:00,
2013-06-22 22:22:00,72.5,65.7,29.84,North,-999,-999.0,-999.0,79,-99.99,,,-99.99,meteohub,2013-06-23 02:22:00,
2013-06-22 22:27:00,72.5,65.7,29.84,North,-999,-999.0,-999.0,79,-99.99,,,-99.99,meteohub,2013-06-23 02:27:00,
2013-06-22 22:32:00,72.3,65.5,29.84,North,-999,-999.0,-999.0,79,-99.99,,,-99.99,meteohub,2013-06-23 02:32:00,
2013-06-22 22:37:00,72.3,65.5,29.87,North,-999,-999.0,-999.0,79,-99.99,,,-99.99,meteohub,2013-06-23 02:37:00,
2013-06-22 22:42:00,72.1,65.7,29.87,North,-999,-999.0,-999.0,80,-99.99,,,-99.99,meteohub,2013-06-23 02:42:00,
2013-06-22 22:47:00,72.1,65.7,29.87,North,-999,-999.0,-999.0,80,-99.99,,,-99.99,meteohub,2013-06-23 02:47:00,
2013-06-22 22:52:00,72.1,65.7,29.87,North,-999,-999.0,-999.0,80,-99.99,,,-99.99,meteohub,2013-06-23 02:52:00,
2013-06-22 22:57:00,72.1,65.7,29.87,North,-999,-999.0,-999.0,80,-99.99,,,-99.99,meteohub,2013-06-23 02:57:00,
2013-06-22 23:02:00,72.0,65.5,29.87,North,-999,-999.0,-999.0,80,-99.99,,,-99.99,meteohub,2013-06-23 03:02:00,
2013-06-22 23:07:00,71.8,65.3,29.84,North,-999,-999.0,-999.0,80,-99.99,,,-99.99,meteohub,2013-06-23 03:07:00,
2013-06-22 23:12:00,71.8,65.3,29.84,North,-999,-999.0,-999.0,80,-99.99,,,-99.99,meteohub,2013-06-23 03:12:00,
2013-06-22 23:17:00,71.6,65.5,29.84,North,-999,-999.0,-999.0,81,-99.99,,,-99.99,meteohub,2013-06-23 03:17:00,
2013-06-22 23:22:00,71.4,65.3,29.87,North,-999,-999.0,-999.0,81,-99.99,,,-99.99,meteohub,2013-06-23 03:22:00,
2013-06-22 23:27:00,71.2,65.1,29.87,North,-999,-999.0,-999.0,81,-99.99,,,-99.99,meteohub,2013-06-23 03:27:00,
2013-06-22 23:32:00,71.2,65.5,29.87,North,-999,-999.0,-999.0,82,-99.99,,,-99.99,meteohub,2013-06-23 03:32:00,
2013-06-22 23:37:00,71.2,65.5,29.87,North,-999,-999.0,-999.0,82,-99.99,,,-99.99,meteohub,2013-06-23 03:37:00,
2013-06-22 23:42:00,71.2,65.5,29.87,North,-999,-999.0,-999.0,82,-99.99,,,-99.99,meteohub,2013-06-23 03:42:00,
2013-06-22 23:47:00,71.2,65.8,29.87,North,-999,-999.0,-999.0,83,-99.99,,,-99.99,meteohub,2013-06-23 03:47:00,
2013-06-22 23:52:00,71.2,65.8,29.87,North,-999,-999.0,-999.0,83,-99.99,,,-99.99,meteohub,2013-06-23 03:52:00,
2013-06-22 23:57:00,71.2,65.8,29.87,North,-999,-999.0,-999.0,83,-99.99,,,-99.99,meteohub,2013-06-23 03:57:00,